Date,Time,Wetness (Wet Dry or Ice),Wind Speed (m/s),Temperature (C),Humidity (%),Pressure (mb),Radiation (W/m^2)
2020-11-14,23:15:00,WET,9.00,7.35,100.0,771.00,89.8
2020-11-14,23:20:00,WET,8.97,7.57,100.0,771.33,110.9
2020-11-14,23:25:00,WET,16.35,7.25,100.0,771.00,109.5
2020-11-14,23:30:00,WET,10.03,7.80,100.0,771.00,105.2
2020-11-14,23:35:00,WET,10.40,7.75,100.0,771.00,109.5
2020-11-14,23:40:00,WET,14.60,7.60,100.0,771.00,114.4
2020-11-14,23:45:00,WET,12.75,7.80,100.0,771.00,105.5
2020-11-14,23:50:00,WET,10.83,7.40,100.0,771.00,89.1
2020-11-14,23:55:00,WET,13.45,7.45,100.0,771.00,97.7
2020-11-15,00:00:00,WET,14.00,7.83,100.0,771.00,102.4
2020-11-15,00:05:00,WET,13.70,7.70,100.0,771.00,91.8
2020-11-15,00:10:00,WET,10.23,7.77,100.0,771.00,92.3
2020-11-15,00:15:00,WET,13.05,8.10,100.0,771.00,94.6
2020-11-15,00:20:00,WET,10.60,7.77,100.0,771.33,90.2
2020-11-15,00:25:00,WET,10.70,7.60,100.0,772.00,90.0
2020-11-15,00:30:00,WET,11.03,7.83,100.0,771.33,97.4
2020-11-15,00:35:00,WET,10.00,7.80,100.0,771.50,96.2
2020-11-15,00:40:00,WET,9.93,7.47,100.0,772.00,93.3
2020-11-15,00:45:00,WET,7.75,7.00,100.0,772.00,78.6
2020-11-15,00:50:00,WET,9.27,6.90,100.0,772.00,91.1
2020-11-15,00:55:00,WET,8.45,7.40,100.0,772.00,89.8
2020-11-15,01:00:00,WET,10.73,7.13,100.0,772.00,125.5
2020-11-15,01:05:00,WET,8.25,7.55,100.0,772.00,94.5
2020-11-15,01:10:00,WET,10.70,7.60,100.0,772.00,105.7
2020-11-15,01:15:00,WET,8.55,7.80,100.0,771.50,81.4
2020-11-15,01:20:00,WET,9.60,7.53,100.0,772.00,80.3
2020-11-15,01:25:00,WET,10.35,7.20,100.0,771.50,97.0
2020-11-15,01:30:00,WET,10.40,7.63,100.0,772.00,73.6
2020-11-15,01:35:00,WET,11.25,7.55,100.0,771.50,99.7
2020-11-15,01:40:00,WET,6.43,7.50,100.0,771.67,115.6
2020-11-15,01:45:00,WET,10.05,7.75,100.0,772.00,89.3
2020-11-15,01:50:00,WET,8.20,7.37,100.0,771.67,85.4
2020-11-15,01:55:00,WET,7.90,7.60,100.0,772.00,96.7
2020-11-15,02:00:00,WET,8.80,7.53,100.0,772.00,82.1
2020-11-15,02:05:00,WET,13.35,8.05,100.0,772.00,105.1
2020-11-15,02:10:00,WET,7.33,7.97,100.0,771.67,100.7
2020-11-15,02:15:00,WET,8.45,7.25,100.0,772.00,83.2
2020-11-15,02:20:00,WET,7.43,7.57,100.0,771.67,88.6
2020-11-15,02:25:00,WET,6.90,7.20,100.0,771.50,87.5
2020-11-15,02:30:00,WET,10.87,6.80,100.0,771.33,83.2
2020-11-15,02:35:00,WET,12.00,7.20,100.0,771.50,83.0
2020-11-15,02:40:00,WET,9.97,6.70,100.0,771.00,86.2
2020-11-15,02:45:00,WET,6.30,6.55,100.0,770.50,71.9
2020-11-15,02:50:00,WET,12.80,6.83,100.0,771.00,68.8
2020-11-15,02:55:00,WET,12.35,7.70,100.0,771.00,89.3
2020-11-15,03:00:00,WET,10.80,7.87,100.0,771.00,108.4
2020-11-15,03:05:00,WET,15.15,7.70,100.0,771.00,109.0
2020-11-15,03:10:00,WET,10.37,6.87,100.0,772.00,72.1
2020-11-15,03:15:00,WET,10.30,7.60,100.0,771.50,73.3
2020-11-15,03:20:00,WET,8.43,6.80,100.0,771.00,70.8
2020-11-15,03:25:00,WET,11.35,6.55,100.0,772.00,61.6
2020-11-15,03:30:00,WET,8.97,6.37,99.7,771.00,61.8
2020-11-15,03:35:00,WET,6.75,6.75,100.0,771.00,77.4
2020-11-15,03:40:00,WET,11.30,6.97,100.0,771.00,85.1
2020-11-15,03:45:00,WET,8.40,6.45,100.0,771.50,88.3
2020-11-15,03:50:00,WET,9.60,5.90,99.0,771.00,61.0
2020-11-15,03:55:00,WET,8.25,6.60,100.0,771.50,55.0
2020-11-15,04:00:00,WET,12.27,7.00,100.0,771.33,88.7
2020-11-15,04:05:00,WET,11.80,6.60,100.0,771.50,79.1
2020-11-15,04:10:00,WET,9.73,6.53,99.7,771.67,87.5
2020-11-15,04:15:00,WET,8.85,5.95,97.5,771.00,54.0
2020-11-15,04:20:00,WET,7.47,6.20,97.3,771.67,48.4
2020-11-15,04:25:00,WET,11.75,6.25,97.5,771.00,49.2
2020-11-15,04:30:00,WET,10.13,6.33,90.0,771.00,27.9
2020-11-15,04:35:00,WET,9.50,6.35,87.0,771.00,7.1
2020-11-15,04:40:00,WET,7.93,6.40,98.0,771.00,33.7
2020-11-15,04:45:00,WET,9.95,6.45,98.5,771.00,51.5
2020-11-15,04:50:00,WET,9.80,6.47,98.3,771.33,54.1
2020-11-15,04:55:00,WET,13.50,6.50,94.0,771.00,36.7
2020-11-15,05:00:00,WET,9.10,6.37,98.0,771.00,51.3
2020-11-15,05:05:00,WET,6.65,6.35,99.0,771.50,99.5
2020-11-15,05:10:00,WET,11.93,6.50,93.7,771.00,81.8
2020-11-15,05:15:00,WET,14.85,6.75,98.5,771.50,65.2
2020-11-15,05:20:00,WET,14.13,6.33,91.7,771.00,47.6
2020-11-15,05:25:00,WET,10.75,6.40,98.5,771.50,54.4
2020-11-15,05:30:00,WET,9.07,6.30,96.3,771.33,49.8
2020-11-15,05:35:00,WET,9.95,6.35,95.0,771.50,43.4
2020-11-15,05:40:00,WET,9.73,6.23,96.3,771.33,45.2
2020-11-15,05:45:00,WET,11.10,6.30,86.0,771.50,30.6
2020-11-15,05:50:00,WET,8.83,6.30,89.3,771.00,28.8
2020-11-15,05:55:00,WET,9.75,6.20,95.5,771.00,33.2
2020-11-15,06:00:00,WET,9.93,6.37,98.7,771.00,50.1
2020-11-15,06:05:00,WET,11.25,6.70,100.0,772.00,64.3
2020-11-15,06:10:00,WET,11.60,6.67,99.3,771.67,88.0
2020-11-15,06:15:00,WET,10.40,6.40,99.5,772.00,77.5
2020-11-15,06:20:00,WET,8.87,6.60,100.0,771.67,81.7
2020-11-15,06:25:00,WET,8.85,6.55,100.0,772.00,89.8
2020-11-15,06:30:00,WET,9.53,7.03,100.0,771.67,94.9
2020-11-15,06:35:00,WET,10.10,6.85,100.0,772.00,90.3
2020-11-15,06:40:00,WET,8.63,6.43,100.0,772.00,79.3
2020-11-15,06:45:00,WET,7.85,6.70,99.5,772.00,67.7
2020-11-15,06:50:00,WET,10.40,6.70,100.0,772.00,75.8
2020-11-15,06:55:00,WET,8.00,6.65,100.0,772.00,72.2
2020-11-15,07:00:00,WET,9.37,6.80,100.0,772.00,80.6
2020-11-15,07:05:00,WET,11.65,6.85,100.0,772.00,70.0
2020-11-15,07:10:00,WET,7.70,6.43,100.0,772.00,69.4
2020-11-15,07:15:00,WET,12.30,6.70,100.0,772.00,62.8
2020-11-15,07:20:00,WET,11.20,6.37,97.3,772.00,51.5
2020-11-15,07:25:00,WET,6.60,6.35,98.5,772.00,49.0
2020-11-15,07:30:00,WET,9.60,6.27,98.0,772.00,47.0
2020-11-15,07:35:00,WET,9.25,6.30,99.0,773.00,53.5
2020-11-15,07:40:00,WET,8.80,6.63,100.0,772.67,67.4
2020-11-15,07:45:00,WET,9.70,6.65,99.5,772.50,71.9
2020-11-15,07:50:00,WET,7.67,6.50,98.3,772.33,79.6
2020-11-15,07:55:00,WET,11.00,6.60,95.0,772.50,103.8
2020-11-15,08:00:00,WET,9.27,6.53,95.7,772.67,113.1
2020-11-15,08:05:00,WET,8.85,6.45,95.5,773.00,113.1
2020-11-15,08:10:00,WET,11.20,6.53,92.7,773.00,118.9
2020-11-15,08:15:00,WET,7.60,6.40,98.0,773.00,173.0
2020-11-15,08:20:00,WET,11.00,6.60,90.7,773.00,112.8
2020-11-15,08:25:00,WET,7.90,6.35,93.0,773.00,115.2
2020-11-15,08:30:00,WET,11.43,6.67,86.0,773.00,100.8
2020-11-15,08:35:00,WET,11.60,6.45,91.5,773.00,102.8
2020-11-15,08:40:00,WET,9.00,6.57,90.7,773.00,129.9
2020-11-15,08:45:00,WET,9.00,6.80,97.5,773.00,138.4
2020-11-15,08:50:00,WET,8.77,6.80,98.0,773.00,184.5
2020-11-15,08:55:00,WET,8.45,6.85,98.5,773.00,191.7
2020-11-15,09:00:00,WET,9.47,6.67,95.7,773.00,205.6
2020-11-15,09:05:00,WET,11.30,6.70,95.5,773.00,165.9
2020-11-15,09:10:00,WET,8.87,6.90,98.0,773.00,142.0
2020-11-15,09:15:00,WET,11.15,6.95,99.5,773.00,178.7
2020-11-15,09:20:00,WET,8.30,6.83,95.0,773.00,215.5
2020-11-15,09:25:00,WET,8.70,7.15,73.5,773.00,215.0
2020-11-15,09:30:00,WET,8.50,6.83,96.0,773.00,208.1
2020-11-15,09:35:00,WET,8.50,6.60,94.0,773.00,262.1
2020-11-15,09:40:00,WET,10.77,7.07,81.7,773.00,351.5
2020-11-15,09:45:00,WET,11.05,7.15,77.5,773.50,360.7
2020-11-15,09:50:00,WET,10.07,6.90,76.0,773.33,389.5
2020-11-15,09:55:00,WET,11.55,7.05,79.0,773.50,231.7
2020-11-15,10:00:00,WET,8.90,7.17,78.7,773.67,320.9
2020-11-15,10:05:00,WET,9.05,6.95,83.0,774.00,563.1
2020-11-15,10:10:00,WET,9.50,7.27,95.0,774.00,583.0
2020-11-15,10:15:00,DRY,11.05,7.35,88.0,774.00,684.8
2020-11-15,10:20:00,WET,8.70,7.53,90.3,774.00,587.2
2020-11-15,10:25:00,DRY,10.45,7.30,90.0,774.00,642.9
2020-11-15,10:30:00,WET,11.10,7.43,89.0,774.00,404.0
2020-11-15,10:35:00,DRY,9.90,7.60,88.5,774.00,514.4
2020-11-15,10:40:00,DRY,7.83,7.60,81.7,774.00,605.7
2020-11-15,10:45:00,WET,8.45,7.70,86.0,774.00,593.0
2020-11-15,10:50:00,WET,8.53,7.47,95.3,774.00,377.6
2020-11-15,10:55:00,WET,6.45,7.75,85.5,774.00,502.8
2020-11-15,11:00:00,WET,9.67,7.63,72.7,774.00,524.3
2020-11-15,11:05:00,WET,7.05,7.75,95.5,774.00,710.5
2020-11-15,11:10:00,WET,10.83,7.87,84.7,774.00,381.0
2020-11-15,11:15:00,DRY,8.45,7.95,76.0,774.50,829.8
2020-11-15,11:20:00,WET,11.27,7.67,89.3,774.00,502.1
2020-11-15,11:25:00,WET,10.05,7.95,94.0,774.00,420.9
2020-11-15,11:30:00,DRY,7.80,8.20,76.0,774.00,619.2
2020-11-15,11:35:00,DRY,8.60,8.05,81.5,774.00,494.9
2020-11-15,11:40:00,WET,8.10,8.03,97.0,774.67,312.3
2020-11-15,11:45:00,WET,8.35,7.70,98.5,774.00,272.5
2020-11-15,11:50:00,WET,7.63,8.00,69.3,774.00,294.4
2020-11-15,11:55:00,DRY,8.60,7.80,75.0,774.00,335.0
2020-11-15,12:00:00,WET,6.93,7.77,93.7,774.33,220.9
2020-11-15,12:05:00,WET,10.80,7.25,93.5,774.00,232.9
2020-11-15,12:10:00,WET,7.33,8.03,72.7,774.33,283.8
2020-11-15,12:15:00,WET,9.95,7.85,91.0,774.00,437.5
2020-11-15,12:20:00,DRY,8.83,7.53,71.3,774.33,499.6
2020-11-15,12:25:00,WET,10.25,7.30,81.0,774.00,300.6
2020-11-15,12:30:00,WET,10.20,7.37,89.7,774.00,432.3
2020-11-15,12:35:00,WET,7.95,7.60,85.0,774.00,543.2
2020-11-15,12:40:00,WET,7.67,7.47,93.3,774.00,678.2
2020-11-15,12:45:00,WET,6.20,7.70,85.0,774.00,686.8
2020-11-15,12:50:00,WET,10.50,7.73,89.3,774.00,660.6
2020-11-15,12:55:00,DRY,10.60,7.40,88.5,774.00,715.8
2020-11-15,13:00:00,DRY,8.13,8.10,64.0,774.00,881.4
2020-11-15,13:05:00,DRY,9.55,8.40,79.5,774.00,799.1
2020-11-15,13:10:00,DRY,7.60,8.07,81.7,774.00,446.8
2020-11-15,13:15:00,WET,7.45,7.90,96.5,774.00,566.7
2020-11-15,13:20:00,WET,8.07,7.77,90.0,774.00,707.7
2020-11-15,13:25:00,DRY,9.25,8.30,73.0,774.00,505.7
2020-11-15,13:30:00,WET,5.80,8.00,97.0,774.00,588.4
2020-11-15,13:35:00,WET,8.00,8.50,91.0,774.00,338.9
2020-11-15,13:40:00,WET,6.60,7.97,81.3,774.00,336.3
2020-11-15,13:45:00,DRY,11.35,7.90,73.5,774.00,404.9
2020-11-15,13:50:00,WET,8.00,7.63,93.3,774.00,376.1
2020-11-15,13:55:00,WET,7.50,7.85,98.0,774.00,281.9
2020-11-15,14:00:00,WET,7.10,7.77,95.7,774.00,269.3
2020-11-15,14:05:00,WET,11.30,7.60,88.0,774.00,663.8
2020-11-15,14:10:00,WET,7.53,7.97,97.3,774.00,426.3
2020-11-15,14:15:00,DRY,7.15,7.65,77.0,774.00,379.4
2020-11-15,14:20:00,WET,8.97,7.70,96.3,774.00,276.6
2020-11-15,14:25:00,WET,9.85,7.55,81.0,774.00,322.6
2020-11-15,14:30:00,WET,7.77,7.90,94.3,774.00,424.4
2020-11-15,14:35:00,WET,7.60,8.05,90.5,774.00,880.0
2020-11-15,14:40:00,DRY,7.03,7.90,76.7,774.00,810.8
2020-11-15,14:45:00,WET,8.50,8.00,83.5,774.00,853.5
2020-11-15,14:50:00,WET,9.17,8.13,80.7,774.00,618.4
2020-11-15,14:55:00,WET,8.60,7.75,90.0,774.00,372.7
2020-11-15,15:00:00,DRY,9.23,8.33,55.3,774.00,597.0
2020-11-15,15:05:00,WET,10.20,8.15,92.0,774.00,631.5
2020-11-15,15:10:00,WET,6.40,8.27,85.3,774.00,542.8
2020-11-15,15:15:00,WET,7.55,8.25,74.5,774.00,636.3
2020-11-15,15:20:00,WET,9.43,8.43,80.7,774.00,522.0
2020-11-15,15:25:00,WET,8.20,7.90,93.0,774.00,400.6
2020-11-15,15:30:00,WET,7.87,8.07,84.7,774.00,629.0
2020-11-15,15:35:00,WET,9.15,8.25,68.0,774.00,488.6
2020-11-15,15:40:00,WET,7.53,8.60,65.7,774.00,470.2
2020-11-15,15:45:00,DRY,7.10,8.80,55.0,774.00,580.4
2020-11-15,15:50:00,DRY,9.10,8.50,59.0,774.00,579.2
2020-11-15,15:55:00,DRY,9.55,9.30,51.0,774.00,536.2
2020-11-15,16:00:00,DRY,10.93,9.37,43.7,774.00,520.5
2020-11-15,16:05:00,DRY,7.25,9.30,48.0,774.00,517.9
2020-11-15,16:10:00,DRY,10.27,9.17,53.7,774.00,488.7
2020-11-15,16:15:00,DRY,9.65,9.00,44.0,774.00,487.5
2020-11-15,16:20:00,DRY,8.33,9.10,61.0,774.00,447.6
2020-11-15,16:25:00,DRY,8.90,8.85,60.5,774.00,340.1
2020-11-15,16:30:00,DRY,8.63,9.43,43.3,774.00,394.1
2020-11-15,16:35:00,DRY,7.45,9.40,44.0,774.00,387.4
2020-11-15,16:40:00,DRY,9.20,9.67,40.0,774.00,363.2
2020-11-15,16:45:00,DRY,9.60,9.70,30.0,774.00,341.9
2020-11-15,16:50:00,DRY,7.27,9.60,36.3,774.00,321.6
2020-11-15,16:55:00,DRY,9.10,9.80,31.5,774.50,300.5
2020-11-15,17:00:00,DRY,7.03,9.37,51.0,774.00,280.5
2020-11-15,17:05:00,DRY,8.35,9.90,27.5,774.00,260.4
2020-11-15,17:10:00,DRY,8.33,9.90,31.0,774.00,240.5
2020-11-15,17:15:00,DRY,7.85,9.80,30.0,774.50,220.7
2020-11-15,17:20:00,DRY,12.97,9.93,25.3,774.00,199.7
2020-11-15,17:25:00,DRY,5.95,10.05,32.5,775.00,182.6
2020-11-15,17:30:00,DRY,9.93,9.97,28.7,774.33,163.6
2020-11-15,17:35:00,DRY,10.35,10.10,24.0,774.50,143.8
2020-11-15,17:40:00,DRY,9.07,9.80,24.3,774.33,118.4
2020-11-15,17:45:00,DRY,9.10,9.70,30.5,775.00,93.4
2020-11-15,17:50:00,DRY,7.13,9.43,35.0,775.00,74.2
2020-11-15,17:55:00,DRY,9.40,9.40,32.0,775.00,54.8
2020-11-15,18:00:00,DRY,9.33,9.87,29.0,774.67,38.3
2020-11-15,18:05:00,DRY,7.65,9.85,21.0,775.00,20.4
2020-11-15,18:10:00,DRY,10.87,9.77,25.0,774.67,16.5
2020-11-15,18:15:00,DRY,10.05,9.95,20.0,775.00,15.4
2020-11-15,18:20:00,DRY,10.77,9.90,22.0,775.00,8.4
2020-11-15,18:25:00,DRY,13.50,10.10,17.0,775.00,4.7
2020-11-15,18:30:00,DRY,10.77,10.10,18.0,775.00,2.8
2020-11-15,18:35:00,DRY,6.35,9.65,25.5,775.00,1.9
2020-11-15,18:40:00,DRY,9.73,9.60,19.0,775.00,1.0
2020-11-15,18:45:00,DRY,13.15,9.50,27.5,775.00,1.3
2020-11-15,18:50:00,DRY,9.30,9.63,23.3,775.00,1.2
2020-11-15,18:55:00,DRY,14.60,9.85,23.5,775.00,1.1
2020-11-15,19:00:00,DRY,11.77,9.90,21.7,775.00,1.2
2020-11-15,19:05:00,DRY,11.25,10.00,16.5,775.00,1.2
2020-11-15,19:10:00,DRY,8.17,10.03,19.7,775.00,1.3
2020-11-15,19:15:00,DRY,9.80,10.25,18.5,775.00,1.1
2020-11-15,19:20:00,DRY,11.50,10.07,19.3,775.00,1.3
2020-11-15,19:25:00,DRY,8.80,10.05,20.5,775.50,2.5
2020-11-15,19:30:00,DRY,9.23,10.13,22.7,775.67,1.5
2020-11-15,19:35:00,DRY,10.15,10.10,22.0,775.50,1.3
2020-11-15,19:40:00,DRY,10.10,10.07,19.0,776.00,1.1
2020-11-15,19:45:00,DRY,12.05,9.95,17.0,776.00,1.0
2020-11-15,19:50:00,DRY,9.93,10.13,20.3,776.00,1.4
2020-11-15,19:55:00,DRY,9.30,9.85,22.5,776.00,1.5
2020-11-15,20:00:00,DRY,9.27,10.03,20.7,776.00,2.2
2020-11-15,20:05:00,DRY,9.40,9.90,23.0,776.00,1.4
2020-11-15,20:10:00,DRY,8.67,9.67,23.3,776.00,1.3
2020-11-15,20:15:00,DRY,7.00,9.55,21.5,776.00,1.2
2020-11-15,20:20:00,DRY,8.93,10.00,20.0,776.00,0.9
2020-11-15,20:25:00,DRY,6.65,9.95,22.5,776.00,1.0
2020-11-15,20:30:00,DRY,7.87,9.90,21.7,776.00,1.1
2020-11-15,20:35:00,DRY,6.35,9.95,20.0,776.00,1.4
2020-11-15,20:40:00,DRY,8.77,9.87,22.7,776.00,1.3
2020-11-15,20:45:00,DRY,7.95,10.05,20.5,776.00,1.2
2020-11-15,20:50:00,DRY,7.43,9.63,23.7,776.00,1.1
2020-11-15,20:55:00,DRY,9.70,9.60,25.5,776.00,1.5
2020-11-15,21:00:00,DRY,9.10,9.67,27.0,776.00,1.3
2020-11-15,21:05:00,DRY,10.50,9.85,26.5,776.00,1.7
2020-11-15,21:10:00,DRY,10.67,9.63,28.7,776.00,1.2
2020-11-15,21:15:00,DRY,9.30,9.60,30.0,776.00,1.2
2020-11-15,21:20:00,DRY,8.27,9.20,30.7,776.00,1.3
2020-11-15,21:25:00,DRY,8.90,9.10,29.5,776.00,1.5
2020-11-15,21:30:00,DRY,10.43,9.33,31.3,776.00,1.9
2020-11-15,21:35:00,DRY,6.90,9.85,28.0,776.50,1.4
2020-11-15,21:40:00,DRY,6.63,9.60,29.3,776.00,1.3
2020-11-15,21:45:00,DRY,9.05,9.40,30.5,776.00,1.2
2020-11-15,21:50:00,DRY,8.63,9.37,30.3,776.00,1.2
2020-11-15,21:55:00,DRY,10.45,9.45,29.0,776.00,1.3
2020-11-15,22:00:00,DRY,10.07,9.60,27.3,776.00,1.2
2020-11-15,22:05:00,DRY,13.95,9.50,27.5,776.00,1.4
2020-11-15,22:10:00,DRY,10.23,9.27,28.7,776.00,1.3
2020-11-15,22:15:00,DRY,10.10,9.25,29.5,776.50,1.2
2020-11-15,22:20:00,DRY,6.53,9.30,28.3,776.67,1.4
2020-11-15,22:25:00,DRY,6.85,9.25,29.0,776.50,1.4
2020-11-15,22:30:00,DRY,9.40,9.20,29.3,776.33,1.1
2020-11-15,22:35:00,DRY,9.75,9.10,31.5,776.50,0.8
2020-11-15,22:40:00,DRY,9.03,9.10,30.7,776.67,1.3
2020-11-15,22:45:00,DRY,7.35,8.85,32.5,777.00,1.2
2020-11-15,22:50:00,DRY,8.20,8.93,33.3,777.00,1.2
2020-11-15,22:55:00,DRY,9.30,8.85,35.0,777.00,1.8
2020-11-15,23:00:00,DRY,7.50,8.83,36.3,776.67,1.2
2020-11-15,23:05:00,DRY,6.90,8.90,36.5,777.00,1.9
2020-11-15,23:10:00,DRY,9.07,9.03,36.7,776.33,1.4
2020-11-15,23:15:00,DRY,8.95,9.10,37.0,777.00,1.2
2020-11-15,23:20:00,DRY,10.33,8.97,38.7,777.00,1.2
2020-11-15,23:25:00,DRY,6.70,9.05,38.5,777.00,1.4
2020-11-15,23:30:00,DRY,6.80,8.97,40.3,776.33,1.2
2020-11-15,23:35:00,DRY,7.50,8.75,41.5,777.00,1.2
2020-11-15,23:40:00,DRY,9.67,8.63,42.3,776.33,1.4
2020-11-15,23:45:00,DRY,7.65,8.95,42.5,777.00,1.2
2020-11-15,23:50:00,DRY,10.53,8.73,42.7,776.67,1.5
2020-11-15,23:55:00,DRY,7.85,8.35,44.5,776.50,1.2
2020-11-16,00:00:00,DRY,7.53,8.57,45.7,776.67,0.8
2020-11-16,00:05:00,DRY,9.15,8.65,44.5,777.00,0.9
2020-11-16,00:10:00,DRY,8.47,8.27,45.7,777.00,1.0
2020-11-16,00:15:00,DRY,6.75,8.25,45.0,776.50,1.1
2020-11-16,00:20:00,DRY,9.77,8.37,45.7,776.67,1.3
2020-11-16,00:25:00,DRY,8.25,8.40,45.0,776.50,1.1
2020-11-16,00:30:00,DRY,10.43,8.50,46.0,776.33,1.4
2020-11-16,00:35:00,DRY,11.50,8.70,48.0,776.50,1.2
2020-11-16,00:40:00,DRY,9.53,8.70,50.0,776.67,1.2
2020-11-16,00:45:00,DRY,8.60,8.60,49.0,777.00,1.4
2020-11-16,00:50:00,DRY,8.73,8.70,50.3,776.33,1.0
2020-11-16,00:55:00,DRY,9.80,8.60,50.5,776.00,1.2
2020-11-16,01:00:00,DRY,6.63,8.50,52.3,776.67,1.3
2020-11-16,01:05:00,DRY,9.65,8.45,52.5,776.00,1.3
2020-11-16,01:10:00,DRY,7.30,8.53,53.3,776.00,1.7
2020-11-16,01:15:00,DRY,9.90,8.45,54.5,776.00,1.7
2020-11-16,01:20:00,DRY,6.73,8.47,55.7,776.33,1.6
2020-11-16,01:25:00,DRY,7.70,8.35,56.5,776.00,1.3
2020-11-16,01:30:00,DRY,9.47,8.47,56.3,776.00,1.3
2020-11-16,01:35:00,DRY,7.80,8.85,56.0,776.50,1.4
2020-11-16,01:40:00,DRY,10.30,8.70,57.0,776.33,1.6
2020-11-16,01:45:00,DRY,4.70,8.80,56.5,776.00,1.6
2020-11-16,01:50:00,DRY,9.20,8.60,57.0,776.33,1.5
2020-11-16,01:55:00,DRY,8.65,8.35,59.0,776.00,1.2
2020-11-16,02:00:00,DRY,8.13,8.77,53.3,776.33,1.4
2020-11-16,02:05:00,DRY,9.15,8.75,57.5,776.50,1.1
2020-11-16,02:10:00,DRY,7.53,8.63,56.7,776.00,1.4
2020-11-16,02:15:00,DRY,6.40,8.40,58.0,776.00,1.4
2020-11-16,02:20:00,DRY,9.80,8.30,59.7,776.00,1.2
2020-11-16,02:25:00,DRY,7.05,8.45,58.0,776.50,1.5
2020-11-16,02:30:00,DRY,7.83,8.43,59.7,776.00,1.4
2020-11-16,02:35:00,DRY,7.70,8.20,61.0,776.00,1.1
2020-11-16,02:40:00,DRY,8.67,8.60,58.3,776.00,1.2
2020-11-16,02:45:00,DRY,6.95,8.70,55.0,776.00,1.1
2020-11-16,02:50:00,DRY,6.70,8.40,60.0,776.00,1.7
2020-11-16,02:55:00,DRY,4.75,8.25,61.5,776.00,1.1
2020-11-16,03:00:00,DRY,6.60,8.43,59.3,776.00,1.4
2020-11-16,03:05:00,DRY,5.65,8.20,60.5,776.50,1.2
2020-11-16,03:10:00,DRY,8.50,7.93,64.3,776.00,1.3
2020-11-16,03:15:00,DRY,6.05,8.45,56.0,776.00,1.1
2020-11-16,03:20:00,DRY,7.90,8.33,62.3,776.00,1.5
2020-11-16,03:25:00,DRY,6.65,8.15,64.5,776.00,1.1
2020-11-16,03:30:00,DRY,5.80,8.37,62.7,776.00,1.4
2020-11-16,03:35:00,DRY,9.90,8.35,64.5,776.00,1.4
2020-11-16,03:40:00,DRY,6.47,8.33,64.0,776.00,1.3
2020-11-16,03:45:00,DRY,8.75,8.35,63.5,776.00,0.8
2020-11-16,03:50:00,DRY,5.27,8.20,63.3,776.00,1.4
2020-11-16,03:55:00,DRY,5.65,8.30,63.5,776.00,1.1
2020-11-16,04:00:00,DRY,7.63,8.07,63.3,776.00,1.4
2020-11-16,04:05:00,DRY,5.95,8.00,64.5,776.00,1.3
2020-11-16,04:10:00,DRY,6.40,8.10,63.3,776.00,1.3
2020-11-16,04:15:00,DRY,6.40,8.20,62.5,776.00,1.4
2020-11-16,04:20:00,DRY,5.50,8.10,63.7,776.00,0.9
2020-11-16,04:25:00,DRY,6.25,8.00,63.0,776.00,1.4
2020-11-16,04:30:00,DRY,6.40,8.10,61.0,776.00,1.4
2020-11-16,04:35:00,DRY,5.55,8.05,63.0,776.00,1.6
2020-11-16,04:40:00,DRY,4.10,7.93,63.7,776.00,1.9
2020-11-16,04:45:00,DRY,3.85,8.00,63.0,776.00,1.1
2020-11-16,04:50:00,DRY,4.50,7.97,62.7,776.00,1.8
2020-11-16,04:55:00,DRY,7.20,8.35,56.0,776.00,2.0
2020-11-16,05:00:00,DRY,6.10,8.33,58.3,776.00,1.5
2020-11-16,05:05:00,DRY,6.65,8.35,56.5,776.00,1.9
2020-11-16,05:10:00,DRY,4.77,8.43,54.7,776.00,1.0
2020-11-16,05:15:00,DRY,8.00,8.35,53.5,776.00,1.2
2020-11-16,05:20:00,DRY,5.63,8.77,47.3,776.00,1.4
2020-11-16,05:25:00,DRY,8.15,8.80,48.0,776.00,1.3
2020-11-16,05:30:00,DRY,8.50,8.97,47.3,776.00,1.4
2020-11-16,05:35:00,DRY,6.25,9.00,45.0,776.00,1.1
2020-11-16,05:40:00,DRY,6.00,9.17,42.0,776.00,1.6
2020-11-16,05:45:00,DRY,5.80,9.10,44.0,776.00,1.2
2020-11-16,05:50:00,DRY,6.60,9.00,43.7,776.00,1.2
2020-11-16,05:55:00,DRY,7.55,8.90,44.5,776.00,1.1
2020-11-16,06:00:00,DRY,7.70,8.87,44.7,776.00,1.1
2020-11-16,06:05:00,DRY,9.10,8.95,43.5,776.00,1.4
2020-11-16,06:10:00,DRY,8.17,8.90,43.3,776.00,1.0
2020-11-16,06:15:00,DRY,8.90,9.10,41.5,776.00,1.1
2020-11-16,06:20:00,DRY,6.73,9.03,41.3,776.00,1.4
2020-11-16,06:25:00,DRY,8.10,9.00,41.0,776.00,0.9
2020-11-16,06:30:00,DRY,7.47,9.07,40.0,776.00,1.7
2020-11-16,06:35:00,DRY,4.35,8.85,43.0,776.00,1.5
2020-11-16,06:40:00,DRY,8.17,8.77,41.7,776.00,1.2
2020-11-16,06:45:00,DRY,5.35,9.00,39.5,776.00,0.7
2020-11-16,06:50:00,DRY,7.57,8.87,41.3,776.33,1.4
2020-11-16,06:55:00,DRY,6.25,8.70,41.5,777.00,1.4
2020-11-16,07:00:00,DRY,6.53,8.73,42.3,776.67,1.2
2020-11-16,07:05:00,DRY,3.90,8.60,42.0,777.00,2.0
2020-11-16,07:10:00,DRY,5.53,8.77,41.0,777.00,1.0
2020-11-16,07:15:00,DRY,6.50,8.95,39.0,777.00,1.4
2020-11-16,07:20:00,DRY,8.87,8.90,39.3,776.67,1.5
2020-11-16,07:25:00,DRY,6.65,9.35,36.5,777.00,2.0
2020-11-16,07:30:00,DRY,7.10,9.20,38.0,777.00,4.2
2020-11-16,07:35:00,DRY,7.95,9.05,39.5,777.00,7.0
2020-11-16,07:40:00,DRY,4.93,8.80,40.3,777.00,9.5
2020-11-16,07:45:00,DRY,4.55,8.65,42.0,777.00,17.5
2020-11-16,07:50:00,DRY,4.67,8.67,41.0,777.00,22.1
2020-11-16,07:55:00,DRY,3.65,8.65,41.0,777.00,24.5
2020-11-16,08:00:00,DRY,4.17,8.67,41.3,777.00,30.1
2020-11-16,08:05:00,DRY,5.90,8.80,39.5,777.00,33.0
2020-11-16,08:10:00,DRY,5.57,9.00,39.7,777.00,34.7
2020-11-16,08:15:00,DRY,3.65,8.75,41.0,777.50,58.1
2020-11-16,08:20:00,DRY,4.23,8.73,41.0,777.33,55.6
2020-11-16,08:25:00,DRY,7.30,8.90,39.5,778.00,43.0
2020-11-16,08:30:00,DRY,5.80,8.87,39.0,777.67,50.6
2020-11-16,08:35:00,DRY,6.05,8.95,39.0,778.00,64.0
2020-11-16,08:40:00,DRY,5.97,8.87,40.0,778.00,85.3
2020-11-16,08:45:00,DRY,2.80,8.80,40.0,778.00,108.2
2020-11-16,08:50:00,DRY,5.13,9.00,39.0,778.00,123.1
2020-11-16,08:55:00,DRY,3.20,9.00,39.0,778.00,122.8
2020-11-16,09:00:00,DRY,7.37,9.17,37.3,778.00,128.8
2020-11-16,09:05:00,DRY,5.75,9.35,36.5,778.00,134.9
2020-11-16,09:10:00,DRY,5.67,9.40,36.7,778.00,127.9
2020-11-16,09:15:00,DRY,5.00,9.45,36.0,778.00,143.8
2020-11-16,09:20:00,DRY,5.07,9.50,35.7,778.00,166.9
2020-11-16,09:25:00,DRY,6.20,9.40,36.5,778.00,197.2
2020-11-16,09:30:00,DRY,3.27,9.27,38.0,778.00,184.7
2020-11-16,09:35:00,DRY,3.15,9.15,38.0,778.00,205.4
2020-11-16,09:40:00,DRY,2.73,9.30,37.7,778.00,216.3
2020-11-16,09:45:00,DRY,1.55,9.50,36.0,778.50,201.7
2020-11-16,09:50:00,DRY,2.40,9.60,36.0,779.00,278.6
2020-11-16,09:55:00,DRY,3.10,9.75,36.0,778.50,242.1
2020-11-16,10:00:00,DRY,3.63,9.87,35.3,779.00,346.7
2020-11-16,10:05:00,DRY,4.50,9.80,35.5,779.00,425.8
2020-11-16,10:10:00,DRY,3.97,9.90,35.3,779.00,387.2
2020-11-16,10:15:00,DRY,2.70,10.05,35.0,779.00,388.8
2020-11-16,10:20:00,DRY,6.17,10.07,35.3,779.00,367.4
2020-11-16,10:25:00,DRY,6.35,10.10,34.5,779.00,362.2
2020-11-16,10:30:00,DRY,5.10,10.13,35.0,779.00,390.3
2020-11-16,10:35:00,DRY,8.65,10.10,35.5,779.00,436.1
2020-11-16,10:40:00,DRY,4.93,10.10,36.0,779.00,339.9
2020-11-16,10:45:00,DRY,4.20,10.10,36.0,779.00,341.4
2020-11-16,10:50:00,DRY,4.97,10.10,36.0,779.00,331.3
2020-11-16,10:55:00,DRY,3.85,10.10,36.0,779.00,321.4
2020-11-16,11:00:00,DRY,5.10,10.10,36.7,779.00,330.2
2020-11-16,11:05:00,DRY,4.15,10.15,36.5,779.00,396.0
2020-11-16,11:10:00,DRY,3.70,10.27,36.0,779.00,398.5
2020-11-16,11:15:00,DRY,6.80,10.40,36.0,779.00,605.0
2020-11-16,11:20:00,DRY,4.93,10.47,35.7,779.00,535.8
2020-11-16,11:25:00,DRY,6.10,10.45,36.5,779.00,319.6
2020-11-16,11:30:00,DRY,4.30,10.47,36.0,779.00,601.6
2020-11-16,11:35:00,DRY,4.30,10.70,36.0,779.00,479.4
2020-11-16,11:40:00,DRY,2.67,10.77,36.7,779.00,607.8
2020-11-16,11:45:00,DRY,3.20,10.80,36.0,779.00,673.0
2020-11-16,11:50:00,DRY,5.57,10.93,36.3,779.00,833.9
2020-11-16,11:55:00,DRY,2.40,11.05,37.0,779.00,824.0
2020-11-16,12:00:00,DRY,4.90,11.00,35.7,779.00,816.7
2020-11-16,12:05:00,DRY,3.80,11.10,38.0,779.00,818.4
2020-11-16,12:10:00,DRY,3.17,11.13,36.3,779.00,823.6
2020-11-16,12:15:00,DRY,5.90,11.20,37.0,779.00,829.1
2020-11-16,12:20:00,DRY,6.70,11.50,35.5,779.00,801.8
2020-11-16,12:25:00,DRY,3.25,11.30,37.5,779.00,838.9
2020-11-16,12:30:00,DRY,4.90,11.47,38.0,779.00,837.6
2020-11-16,12:35:00,DRY,4.95,11.65,36.5,779.00,833.3
2020-11-16,12:40:00,DRY,2.23,11.47,37.7,779.00,833.4
2020-11-16,12:45:00,DRY,3.15,11.55,39.5,779.00,834.1
2020-11-16,12:50:00,DRY,3.03,11.67,39.0,779.00,832.0
2020-11-16,12:55:00,DRY,4.45,11.95,37.0,779.00,834.5
2020-11-16,13:00:00,DRY,2.90,11.93,39.0,779.00,835.4
2020-11-16,13:05:00,DRY,4.40,12.00,38.5,779.00,824.5
2020-11-16,13:10:00,DRY,3.73,11.57,40.3,779.00,825.6
2020-11-16,13:15:00,DRY,3.70,11.55,41.0,779.00,829.0
2020-11-16,13:20:00,DRY,3.00,11.67,41.3,778.67,824.7
2020-11-16,13:25:00,DRY,3.90,11.60,43.0,779.00,823.2
2020-11-16,13:30:00,DRY,3.60,11.70,42.0,779.00,820.7
2020-11-16,13:35:00,DRY,3.80,11.30,44.0,778.00,814.2
2020-11-16,13:40:00,DRY,2.60,11.57,43.0,779.00,811.9
2020-11-16,13:45:00,DRY,3.60,11.40,44.5,779.00,806.2